[[{"header":{"parameterUnit":"m.s-1","parameterCategory":1,"la1":30.2991,"la2":30.254,"lo1":-89.0895,"lo2":-89.0444,"dy":0.0017,"dx":0.0017,"nx":28,"ny":28,"refTime":"2024-08-05T09:00:00:Z","depth":0,"parameterNumber":2,"parameterNumberName":"U-component_of_WINDS"},"data":[0,0,0,0,0,0,0,0,0,0,0,0,0,0,0,0,0,0,0,0,0,0,0,0,0,0,0,0,0,0,0,0,0,0,0,0,0,0,0,0,0,0,0,0,0,0,0,0,0,0,0,0,0,0,0,0,0,0,3.0602,3.0602,0,3.067,3.067,3.0671,3.0611,3.0608,3.0606,3.0604,3.0676,3.068,3.0684,0,0,0,0,0,0,0,0,0,0,0,0,0,3.0423,3.0427,3.0602,3.0602,3.0603,3.0669,3.067,3.0671,3.0611,3.0608,3.0605,3.0602,3.0675,3.068,3.0685,0,0,0,0,0,0,0,0,0,0,0,0,0,3.0497,3.0428,3.0601,3.0581,3.058,3.0669,3.067,3.0672,3.0612,3.0608,3.0604,3.0601,3.0673,3.0679,3.0685,3.0799,0,0,3.0705,3.0708,0,0,0,0,0,0,0,0,3.0493,3.0504,3.0583,3.0583,3.0582,3.0628,3.0634,3.0714,3.0613,3.06,3.0603,3.0599,3.0663,3.067,3.0691,3.0802,3.0805,3.0705,3.0709,3.0712,3.0714,0,0,0,0,0,0,0,3.0488,3.05,3.0628,3.0585,3.0584,3.057,3.0576,3.0649,3.0652,3.0601,3.0597,3.0605,3.0662,3.0685,3.0692,3.0806,3.0705,3.0711,3.0715,3.0717,3.1016,3.102,0,0,0,0,0,0,3.0485,3.0497,3.0626,3.0631,3.0527,3.0576,3.0583,3.0617,3.0651,3.0652,3.0608,3.0602,3.0676,3.0685,3.0695,3.0831,3.0712,3.0718,3.0722,3.1012,3.1017,3.1022,0,0,0,0,0,0,3.0481,3.0497,3.0624,3.0562,3.0578,3.0583,3.0621,3.062,3.0643,3.0656,3.0657,3.0631,3.0674,3.0686,3.0774,3.0833,3.0721,3.0727,3.1007,3.1014,3.1019,3.1105,0,0,0,0,0,0,3.0476,3.0496,3.0538,3.0564,3.0581,3.0701,3.0625,3.0624,3.0654,3.0646,3.0678,3.068,3.0672,3.0765,3.078,3.084,3.0732,3.1002,3.101,3.1018,3.1097,3.1113,3.1127,0,0,0,0,0,3.047,3.0559,3.054,3.0556,3.0634,3.0704,3.0714,3.0702,3.0659,3.0702,3.0711,3.0679,3.0824,3.0774,3.0791,3.0853,3.0998,3.1008,3.1017,3.109,3.111,3.1127,0,0,0,0,0,0,3.0541,3.0562,3.0542,3.0642,3.0672,3.0694,3.0748,3.0723,3.0767,3.0758,3.0742,3.075,3.0843,3.0857,3.0801,3.0966,3.0904,3.0917,3.0954,3.0973,3.0988,3.0983,3.0737,0,0,0,0,0,3.0568,3.0623,3.0639,3.0726,3.0742,3.0743,3.0773,3.0761,3.0791,3.0804,3.0819,3.0851,3.0904,3.0939,3.0988,3.1098,3.1105,3.1149,3.1164,3.1177,3.1189,3.125,3.1271,3.1052,3.1052,3.1052,0,0,3.0626,3.0644,3.0679,3.0741,3.0762,3.082,3.0753,3.0817,3.0861,3.0814,3.0898,3.091,3.0945,3.1045,3.109,3.1059,3.1251,3.1189,3.1199,3.1204,3.1262,3.1282,3.1301,3.1059,3.1057,3.1056,0,0,3.076,3.0778,3.0854,3.0877,3.091,3.091,3.0928,3.0955,3.0961,3.1045,3.1012,3.1063,3.1154,3.1181,3.1206,3.1351,3.1324,3.1368,3.1448,3.1508,3.1525,3.154,3.1594,3.1613,3.138,3.138,3.138,0,3.0827,3.0912,3.0896,3.0962,3.0991,3.0951,3.1028,3.1051,3.11,3.1121,3.1086,3.12,3.122,3.1327,3.1363,3.1384,3.1406,3.1365,3.1523,3.1539,3.1553,3.1604,3.1624,3.1385,3.1384,3.1384,3.1383,0,3.0994,3.1053,3.111,3.1158,3.1193,3.1264,3.1261,3.1298,3.1284,3.1288,3.1375,3.1398,3.1452,3.1476,3.1462,3.1581,3.1562,3.1525,3.1463,3.1579,3.1627,3.1646,3.1392,3.1391,3.1389,3.1388,0,0,3.1175,3.1213,3.1234,3.1256,3.129,3.1337,3.1407,3.1459,3.1493,3.1527,3.1587,3.1666,3.1632,3.1661,3.1651,3.1703,3.1819,3.166,3.1661,3.1691,3.1954,3.1982,3.2005,3.1801,3.1804,3.1807,3.1952,0,3.1312,3.1434,3.1422,3.1538,3.1594,3.1557,3.1618,3.1647,3.1653,3.1702,3.1709,3.1766,3.1717,3.1734,3.1784,3.1794,3.1872,3.1783,3.1858,3.1861,3.1852,3.203,3.2059,3.2195,3.197,3.1973,3.1975,0,3.1488,3.1529,3.165,3.1677,3.17,3.1756,3.1803,3.185,3.1883,3.1883,3.1916,3.1897,3.197,3.1905,3.2006,3.1946,3.1976,3.1986,3.1991,3.1998,3.1926,3.2044,3.2237,3.2258,3.2004,3.2002,3.2,0,3.161,3.1696,3.178,3.1799,3.1832,3.1872,3.1888,3.1917,3.1949,3.1991,3.2012,3.2062,3.209,3.213,3.2126,3.2079,3.2229,3.2164,3.2234,3.2234,3.2268,3.2266,3.2471,3.2285,3.2285,3.2284,3.2284,0,3.1765,3.1842,3.1835,3.1887,3.1972,3.1958,3.2043,3.2055,3.2081,3.2135,3.2106,3.2158,3.2148,3.2201,3.2197,3.2283,3.2295,3.2299,3.2298,3.2303,3.2303,3.2323,3.2314,3.229,3.2288,3.2287,3.2286,0,3.1917,3.1915,3.2005,3.2029,3.2037,3.2099,3.212,3.217,3.2173,3.2243,3.2259,3.2265,3.2326,3.2325,3.2394,3.2391,3.2497,3.2484,3.2486,3.2484,3.2555,3.2549,3.2781,3.2812,3.2604,3.2606,3.2608,0,3.2017,3.2075,3.2105,3.2139,3.2157,3.2213,3.2246,3.2234,3.227,3.2312,3.2358,3.2415,3.2461,3.256,3.2571,3.2625,3.2614,3.2691,3.2621,3.2625,3.2617,3.2614,3.2621,3.2706,3.2708,3.271,3.2711,0,3.2195,3.2191,3.2239,3.2288,3.2328,3.2366,3.2401,3.2431,3.2424,3.2466,3.2527,3.2562,3.2633,3.2691,3.2742,3.276,3.2736,3.2733,3.2752,3.2759,3.2759,3.2762,3.2525,3.2728,3.2726,3.2725,3.2724,3.2724,3.2325,3.2375,3.2405,3.246,3.2484,3.2518,3.2567,3.2576,3.2627,3.2683,3.2673,3.2742,3.2774,3.2841,3.2863,3.2918,3.2891,3.2918,3.2926,3.2933,3.2942,3.2749,3.2927,3.2927,3.2926,3.2926,3.2925,0,3.2503,3.252,3.2571,3.262,3.2664,3.2635,3.2673,3.2712,3.2773,3.2804,3.285,3.2921,3.2978,3.2994,3.3049,3.309,3.3081,3.3105,3.3103,3.3108,3.2962,3.2941,3.3112,3.3112,3.3112,3.3112,3.3112,3.3112,3.2601,3.2685,3.2685,3.2782,3.2799,3.2866,3.289,3.2921,3.2946,3.3027,3.3074,3.3083,3.311,3.3166,3.3218,3.3221,3.3244,3.3274,3.3273,3.3137,3.3118,3.31,3.308,3.3278,3.3279,3.3415,3.3416,3.3417]},{"header":{"parameterUnit":"m.s-1","parameterCategory":1,"la1":30.2991,"la2":30.254,"lo1":-89.0895,"lo2":-89.0444,"dy":0.0017,"dx":0.0017,"nx":28,"ny":28,"refTime":"2024-08-05T09:00:00:Z","depth":0,"parameterNumber":3,"parameterNumberName":"V-component_of_WINDS"},"data":[0,0,0,0,0,0,0,0,0,0,0,0,0,0,0,0,0,0,0,0,0,0,0,0,0,0,0,0,0,0,0,0,0,0,0,0,0,0,0,0,0,0,0,0,0,0,0,0,0,0,0,0,0,0,0,0,0,0,-2.1341,-2.1342,0,-2.1435,-2.1436,-2.1437,-2.1446,-2.1445,-2.1444,-2.1443,-2.1541,-2.1545,-2.1548,0,0,0,0,0,0,0,0,0,0,0,0,0,-2.1173,-2.1176,-2.1341,-2.1342,-2.1344,-2.1435,-2.1436,-2.1437,-2.1446,-2.1445,-2.1444,-2.1442,-2.154,-2.1544,-2.1548,0,0,0,0,0,0,0,0,0,0,0,0,0,-2.1255,-2.1177,-2.1341,-2.1359,-2.1361,-2.1434,-2.1436,-2.1438,-2.1446,-2.1445,-2.1443,-2.1442,-2.1539,-2.1544,-2.1549,-2.1612,0,0,-2.1565,-2.1568,0,0,0,0,0,0,0,0,-2.125,-2.1261,-2.1355,-2.1358,-2.1361,-2.1427,-2.1413,-2.1496,-2.1447,-2.1414,-2.1443,-2.1441,-2.1505,-2.1513,-2.1534,-2.1616,-2.162,-2.1566,-2.1569,-2.1571,-2.1573,0,0,0,0,0,0,0,-2.1244,-2.1257,-2.1378,-2.1356,-2.136,-2.1363,-2.1373,-2.1429,-2.1467,-2.1417,-2.1418,-2.1428,-2.1506,-2.1528,-2.1536,-2.1622,-2.1566,-2.157,-2.1574,-2.1576,-2.1762,-2.1764,0,0,0,0,0,0,-2.1235,-2.1252,-2.1375,-2.1381,-2.13,-2.1367,-2.1379,-2.1407,-2.1466,-2.1473,-2.143,-2.1429,-2.152,-2.153,-2.1539,-2.1618,-2.1571,-2.1576,-2.1579,-2.1761,-2.1763,-2.1765,0,0,0,0,0,0,-2.1231,-2.1246,-2.1372,-2.1317,-2.1333,-2.1372,-2.1404,-2.141,-2.1432,-2.1476,-2.1483,-2.1445,-2.1519,-2.1532,-2.1594,-2.1621,-2.1579,-2.1583,-2.1759,-2.1761,-2.1764,-2.1774,0,0,0,0,0,0,-2.1226,-2.1244,-2.1268,-2.1317,-2.1336,-2.1423,-2.1406,-2.1413,-2.1441,-2.1441,-2.1492,-2.15,-2.1519,-2.1586,-2.1599,-2.1628,-2.1588,-2.1756,-2.176,-2.1763,-2.1771,-2.1777,-2.1781,0,0,0,0,0,-2.122,-2.1267,-2.1269,-2.1284,-2.1366,-2.1425,-2.1436,-2.1456,-2.1443,-2.1468,-2.1496,-2.1498,-2.1616,-2.1592,-2.1607,-2.1638,-2.1755,-2.1759,-2.1763,-2.1769,-2.1776,-2.1781,0,0,0,0,0,0,-2.122,-2.1274,-2.1276,-2.134,-2.1378,-2.1426,-2.1458,-2.1462,-2.1505,-2.1503,-2.1528,-2.1539,-2.1601,-2.1625,-2.1598,-2.1702,-2.1684,-2.1691,-2.1684,-2.169,-2.1695,-2.1688,-2.1592,0,0,0,0,0,-2.1228,-2.127,-2.1315,-2.1367,-2.1386,-2.1418,-2.1445,-2.1458,-2.1498,-2.1514,-2.1547,-2.1587,-2.1633,-2.1663,-2.1708,-2.1775,-2.1787,-2.1803,-2.1808,-2.1812,-2.1818,-2.1857,-2.1865,-2.1778,-2.1778,-2.1778,0,0,-2.1243,-2.1278,-2.1303,-2.1368,-2.1399,-2.1443,-2.1432,-2.1479,-2.1513,-2.1522,-2.1582,-2.1608,-2.1654,-2.1719,-2.175,-2.1742,-2.1845,-2.1817,-2.182,-2.1824,-2.1862,-2.187,-2.1878,-2.1781,-2.178,-2.178,0,0,-2.1295,-2.1325,-2.1372,-2.1403,-2.1449,-2.1471,-2.1482,-2.153,-2.1548,-2.1608,-2.1616,-2.1658,-2.1736,-2.1769,-2.1796,-2.1862,-2.1866,-2.1876,-2.1902,-2.1939,-2.1946,-2.1953,-2.1977,-2.1986,-2.1882,-2.1882,-2.1882,0,-2.1309,-2.1376,-2.1396,-2.1444,-2.1472,-2.1482,-2.1531,-2.156,-2.1619,-2.164,-2.163,-2.173,-2.1761,-2.1835,-2.1851,-2.1872,-2.1887,-2.187,-2.1943,-2.195,-2.1956,-2.198,-2.1989,-2.1883,-2.1883,-2.1883,-2.1883,0,-2.1391,-2.1438,-2.147,-2.1527,-2.1559,-2.1607,-2.1636,-2.1667,-2.1677,-2.17,-2.1763,-2.1802,-2.1855,-2.1873,-2.1884,-2.1949,-2.1943,-2.1938,-2.1921,-2.1965,-2.1988,-2.1997,-2.1884,-2.1884,-2.1884,-2.1883,0,0,-2.1445,-2.1512,-2.1524,-2.155,-2.1603,-2.164,-2.1689,-2.1741,-2.1767,-2.1808,-2.1851,-2.1918,-2.1914,-2.1945,-2.1959,-2.1992,-2.2043,-2.1983,-2.1985,-2.1994,-2.212,-2.2124,-2.2134,-2.2046,-2.2048,-2.205,-2.2116,0,-2.1504,-2.159,-2.161,-2.1685,-2.1729,-2.1739,-2.1782,-2.182,-2.1843,-2.1885,-2.1911,-2.1958,-2.1949,-2.1968,-2.2001,-2.203,-2.2069,-2.2025,-2.2088,-2.209,-2.2077,-2.2146,-2.215,-2.2211,-2.2125,-2.2127,-2.2128,0,-2.1583,-2.1625,-2.1704,-2.1752,-2.1771,-2.1809,-2.1859,-2.1898,-2.1942,-2.1957,-2.1992,-2.2003,-2.2056,-2.2036,-2.211,-2.208,-2.2107,-2.2126,-2.2128,-2.2136,-2.2112,-2.2156,-2.223,-2.224,-2.2142,-2.2141,-2.214,0,-2.1616,-2.1692,-2.175,-2.1772,-2.1829,-2.1856,-2.1881,-2.1923,-2.1953,-2.1997,-2.2017,-2.2067,-2.2094,-2.2133,-2.2159,-2.2141,-2.2232,-2.2213,-2.2247,-2.2246,-2.2266,-2.2264,-2.2347,-2.2282,-2.2281,-2.2281,-2.2281,0,-2.1679,-2.1728,-2.1765,-2.1801,-2.1856,-2.1879,-2.1934,-2.1959,-2.1997,-2.2039,-2.205,-2.209,-2.212,-2.2164,-2.2184,-2.2244,-2.2256,-2.2271,-2.2275,-2.227,-2.2268,-2.2288,-2.2285,-2.2284,-2.2283,-2.2283,-2.2282,0,-2.1725,-2.1752,-2.1816,-2.1865,-2.1878,-2.1917,-2.1959,-2.1995,-2.2018,-2.2071,-2.2085,-2.2123,-2.2175,-2.2204,-2.227,-2.2284,-2.2351,-2.2353,-2.2336,-2.2338,-2.2371,-2.2368,-2.247,-2.2485,-2.2409,-2.2409,-2.241,0,-2.1764,-2.1801,-2.1854,-2.1883,-2.1908,-2.1954,-2.1985,-2.201,-2.2042,-2.2095,-2.2125,-2.2178,-2.2221,-2.2305,-2.2339,-2.239,-2.2394,-2.2427,-2.2402,-2.2396,-2.2396,-2.2394,-2.2399,-2.2431,-2.2432,-2.2432,-2.2433,0,-2.1831,-2.1843,-2.1886,-2.1935,-2.1971,-2.2011,-2.205,-2.2073,-2.2105,-2.2141,-2.2194,-2.2228,-2.2296,-2.2349,-2.2403,-2.243,-2.2438,-2.244,-2.2451,-2.2446,-2.2435,-2.2443,-2.2348,-2.2438,-2.2437,-2.2437,-2.2437,-2.2436,-2.1875,-2.191,-2.1952,-2.2001,-2.2033,-2.207,-2.2106,-2.2134,-2.2179,-2.2235,-2.2248,-2.2305,-2.2349,-2.2422,-2.2451,-2.2497,-2.2491,-2.2506,-2.251,-2.2514,-2.2516,-2.2427,-2.2507,-2.2507,-2.2507,-2.2506,-2.2506,0,-2.1944,-2.1972,-2.2016,-2.2071,-2.2109,-2.2112,-2.2156,-2.2189,-2.2238,-2.2278,-2.2321,-2.2384,-2.2435,-2.2474,-2.2527,-2.2557,-2.2562,-2.257,-2.2569,-2.2575,-2.2517,-2.2503,-2.2565,-2.2565,-2.2565,-2.2565,-2.2565,-2.2565,-2.1984,-2.2042,-2.2059,-2.2134,-2.2162,-2.2217,-2.2243,-2.2277,-2.231,-2.2379,-2.2421,-2.2446,-2.2486,-2.2543,-2.2591,-2.2601,-2.2621,-2.2629,-2.264,-2.2585,-2.2579,-2.2573,-2.256,-2.2633,-2.2633,-2.2694,-2.2694,-2.2695]}]]